Home   Weather   Lawrence   Past weeks

Flag for USA Past Weather in Lawrence, Kansas, USA — Yesterday and Last 2 Weeks

Now
58 °F

Clear.


Feels Like: 58 °F
Forecast: 48 / 72 °F
Wind: 5 mph from Northwest

Location: Lawrence Municipal Airport

Current Time: Sep 29, 2016 at 8:43:17 PM

Latest Report: Sep 29, 2016 at 7:52 PM


Visibility: 10 mi

Pressure: 30.29 "Hg

Humidity: 84%

Dew Point: 53 °F

Location of LawrenceLocation

Past Weather in Lawrence — Graph

°F

Lawrence Temperature Yesterday

Maximum temperature yesterday: 69 °F (at 3:52 PM)
Minimum temperature yesterday: 49 °F (at 11:52 PM)
Average temperature yesterday: 59 °F

High & Low Weather Summary for the Past Weeks

 TemperatureHumidityPressure
High92 °F (Sep 20, 2:52 PM)100% (Sep 15, 12:52 AM)30.40 "Hg (Sep 15, 12:52 AM)
Low45 °F (Sep 26, 6:52 AM)32% (Sep 26, 3:52 PM)29.85 "Hg (Sep 28, 3:52 AM)
Average70 °F81%30.03 "Hg
* Reported Sep 14 6:52 PM — Sep 29 6:52 PM, Lawrence, Weather by CustomWeather, © 2016

Note: Actual official high and low records may vary slightly from our data, if they occured in-between our weather recording intervals... More about our weather records

Advertising

Lawrence Weather History for the Previous 24 Hours

Scroll right to see more
 ConditionsComfort  
Time TempWeatherWind HumidityBarometerVisibility
6:52 PM
Thu, Sep 29
65 °FSunny.5 mph61%30.28 "Hg10 mi
5:52 PM71 °FSunny.8 mph42%30.28 "Hg10 mi
4:52 PM71 °FSunny.8 mph45%30.29 "Hg10 mi
3:52 PM72 °FSunny.9 mph43%30.30 "Hg10 mi
2:52 PM71 °FSunny.10 mph45%30.32 "Hg10 mi
1:52 PM71 °FSunny.7 mph49%30.34 "Hg10 mi
12:52 PM70 °FSunny.14 mph51%30.37 "Hg10 mi
11:52 AM67 °FSunny.12 mph59%30.38 "Hg10 mi
10:52 AM64 °FSunny.9 mph68%30.40 "Hg10 mi
9:52 AM60 °FSunny.7 mph78%30.40 "Hg10 mi
8:52 AM53 °FSunny.6 mph93%30.38 "Hg10 mi
7:52 AM49 °FSunny.8 mph97%30.37 "Hg10 mi
6:52 AM47 °FClear.5 mph97%30.35 "Hg10 mi
5:52 AM47 °FClear.6 mph100%30.33 "Hg10 mi
4:52 AM47 °FClear.5 mph100%30.31 "Hg10 mi
3:52 AM50 °FClear.8 mph96%30.29 "Hg10 mi
2:52 AM48 °FClear.8 mph100%30.29 "Hg10 mi
1:52 AM48 °FClear.6 mph96%30.29 "Hg10 mi
12:52 AM49 °FClear.6 mph97%30.29 "Hg10 mi
11:52 PM
Wed, Sep 28
49 °FClear.5 mph97%30.29 "Hg10 mi
10:52 PM51 °FPassing clouds.5 mph92%30.28 "Hg10 mi
9:52 PM53 °FPassing clouds.6 mph89%30.27 "Hg10 mi
8:52 PM53 °FClear.6 mph86%30.24 "Hg10 mi
Weather by CustomWeather, © 2016

See weather overviewHow to use our weather pages